Location: Mount Cross
(36.6390°N, 79.4878°W)
Time: 15:59:59
(UTC+00:00)

Explorer 11/Cluster Stage 4 - All Passes

Search period start: 31 March 2023 00:00
Search period end: 10 April 2023 00:00
Orbit: 466 x 1241 km, 28.8° (Epoch: 30 March)

Date Brightness Start Highest point End Pass type
(mag) Time Alt. Az. Time Alt. Az. Time Alt. Az.
31 Mar - 10:10:28 10° SW 10:13:18 21° SSE 10:16:21 10° ESE visible
31 Mar - 11:57:28 10° WSW 12:00:51 27° S 12:04:46 10° ESE daylight
31 Mar - 13:45:19 10° WSW 13:48:37 20° SSW 13:52:22 10° SSE daylight
01 Apr - 09:56:49 10° SW 09:59:40 22° S 10:02:40 10° ESE visible
01 Apr - 11:43:59 10° WSW 11:47:12 25° S 11:50:50 10° SE daylight
01 Apr - 13:32:05 10° SW 13:34:54 17° SSW 13:38:04 10° SSE daylight
02 Apr - 07:57:31 10° S 07:58:35 11° SSE 07:59:39 10° SE visible
02 Apr - 09:43:10 10° SW 09:46:02 22° S 09:48:59 10° ESE visible
02 Apr - 11:30:30 10° WSW 11:33:33 23° S 11:36:55 10° SE daylight
02 Apr - 13:18:58 10° SW 13:21:12 14° SSW 13:23:38 10° SSE daylight
03 Apr - 07:43:08 10° SSW 07:44:55 13° SSE 07:46:37 10° SE night (unlit)
03 Apr - 09:29:28 10° SW 09:32:23 23° S 09:35:20 10° ESE visible
03 Apr - 11:17:01 10° WSW 11:19:54 22° S 11:23:00 10° SE daylight
03 Apr - 13:06:06 10° SW 13:07:30 11° SSW 13:08:58 10° S daylight
04 Apr - 07:28:56 10° SSW 07:31:14 15° SSE 07:33:25 10° SE night (unlit)
04 Apr - 09:15:45 10° SW 09:18:44 23° S 09:21:41 10° ESE visible
04 Apr - 11:03:33 10° WSW 11:06:15 20° S 11:09:06 10° SE daylight
05 Apr - 07:14:48 10° SSW 07:17:33 17° SSE 07:20:05 10° SE night (unlit)
05 Apr - 09:02:01 10° SW 09:05:06 24° S 09:08:03 10° ESE visible
05 Apr - 10:50:04 10° SW 10:52:35 18° SSW 10:55:11 10° SSE daylight
06 Apr - 07:00:42 10° SW 07:03:52 19° S 07:06:42 10° ESE night (unlit)
06 Apr - 08:48:15 10° WSW 08:51:26 24° S 08:54:27 10° SE visible
06 Apr - 10:36:34 10° SW 10:38:54 16° SSW 10:41:16 10° SSE daylight
07 Apr - 05:00:49 10° S 05:02:26 11° SSE 05:03:58 10° SE night (unlit)
07 Apr - 06:46:36 10° SW 06:50:10 22° S 06:53:18 10° ESE night (unlit)
07 Apr - 08:34:26 10° WSW 08:37:46 25° S 08:40:50 10° SE visible
07 Apr - 10:23:05 10° SW 10:25:13 15° SSW 10:27:20 10° SSE visible
08 Apr - 04:45:52 10° SSW 04:48:39 14° SSE 04:51:12 10° SE night (unlit)
08 Apr - 06:32:31 10° SW 06:36:27 25° S 06:39:50 10° ESE night (unlit)
08 Apr - 08:20:37 10° WSW 08:24:04 25° S 08:27:13 10° SE visible
08 Apr - 10:09:35 10° SW 10:11:30 14° SSW 10:13:22 10° SSE visible
09 Apr - 04:31:14 10° SSW 04:34:51 17° SSE 04:38:04 10° ESE night (unlit)
09 Apr - 06:18:24 10° SW 06:22:42 27° S 06:26:22 10° ESE night (unlit)
09 Apr - 08:06:45 10° WSW 08:10:23 26° S 08:13:36 10° SE visible
09 Apr - 09:56:08 10° SW 09:57:46 12° SSW 09:59:22 10° S visible
